Glenwood, MN

2:38 AM CDT on March 30, 2017 (GMT -0500)
Glenwood Municipal

Weather History for KGHW - October, 2011

Change the Weather History Date:

Friday, October 7, 2011

  Actual Average Record
Temperature  
Mean Temperature 72 °F -  
Max Temperature 80 °F 62 °F 89 °F (2003)
Min Temperature 64 °F 38 °F 21 °F (2012)
Cooling Degree Days 7    
Growing Degree Days 22 (Base 50)    
Moisture  
Dew Point 49 °F    
Average Humidity 45    
Maximum Humidity 88    
Minimum Humidity 32    
Precipitation  
Precipitation 0.09 in - - ()
Sea Level Pressure  
Sea Level Pressure 29.80 in    
Wind  
Wind Speed 22 mph (SSE)    
Max Wind Speed 36 mph    
Max Gust Speed 46 mph    
Visibility 10 miles    
Events Rain , Thunderstorm    
Averages and records for this station are not official NWS values.
T = Trace of Precipitation, MM = Missing Value Source: NWS Daily Summary

Daily Weather History Graph

Daily Weather History Graph

Search for Another Location

Airport or City:

Trip Planner

Search our weather history database for the weather conditions in past years. The results will help you decide how hot, cold, wet, or windy it might be!

Date:

Astronomy

Oct. 07, 2011 Rise Set
Actual Time 7:26 AM CDT 6:50 PM CDT
Civil Twilight 6:57 AM CDT 7:20 PM CDT
Nautical Twilight 6:22 AM CDT 7:54 PM CDT
Astronomical Twilight 5:48 AM CDT 8:29 PM CDT
Moon 4:43 PM CDT (10/7) 3:05 AM CDT (10/7)
Length of Visible Light 12h 22m
Length of Day
11h 23m
Waxing Gibbous, 83% of the Moon is Illuminated
Oct 7
Waxing Gibbous
Oct 11
Full
Oct 19
Last Quarter
Oct 26
New
Nov 2
First Quarter

Hourly Weather History & Observations

Time (CDT) Temp. Dew Point Humidity Pressure Visibility Wind Dir Wind Speed Gust Speed Precip Events Conditions
12:13 AM 68.0 °F 39.2 °F 35% 29.89 in 10.0 mi SE 19.6 mph 29.9 mph N/A   Clear
12:34 AM 68.0 °F 41.0 °F 37% 29.88 in 10.0 mi SE 19.6 mph 26.5 mph N/A   Clear
12:53 AM 68.0 °F 41.0 °F 37% 29.88 in 10.0 mi SE 19.6 mph 28.8 mph N/A   Clear
1:13 AM 66.2 °F 41.0 °F 40% 29.88 in 10.0 mi SE 18.4 mph 24.2 mph N/A   Clear
1:34 AM 66.2 °F 42.8 °F 43% 29.88 in 10.0 mi SE 19.6 mph 25.3 mph N/A   Clear
1:54 AM 66.2 °F 42.8 °F 43% 29.88 in 10.0 mi SE 15.0 mph - N/A   Clear
2:14 AM 64.4 °F 42.8 °F 45% 29.88 in 10.0 mi SE 16.1 mph - N/A   Clear
2:34 AM 66.2 °F 42.8 °F 43% 29.88 in 10.0 mi SE 20.7 mph 27.6 mph N/A   Clear
2:54 AM 66.2 °F 42.8 °F 43% 29.88 in 10.0 mi SE 19.6 mph 28.8 mph N/A   Clear
3:13 AM 69.8 °F 41.0 °F 35% 29.88 in 10.0 mi SSE 23.0 mph 38.0 mph N/A   Clear
3:34 AM 68.0 °F 42.8 °F 40% 29.87 in 10.0 mi SSE 24.2 mph 31.1 mph N/A   Clear
3:53 AM 68.0 °F 42.8 °F 40% 29.86 in 10.0 mi SSE 23.0 mph 29.9 mph N/A   Clear
4:14 AM 68.0 °F 42.8 °F 40% 29.86 in 10.0 mi SSE 23.0 mph 29.9 mph N/A   Clear
4:33 AM 68.0 °F 42.8 °F 40% 29.86 in 10.0 mi SSE 20.7 mph 31.1 mph N/A   Clear
4:54 AM 68.0 °F 44.6 °F 43% 29.85 in 10.0 mi SSE 18.4 mph 29.9 mph N/A   Clear
5:14 AM 66.2 °F 44.6 °F 46% 29.85 in 10.0 mi SSE 19.6 mph 26.5 mph N/A   Clear
5:34 AM 66.2 °F 44.6 °F 46% 29.85 in 10.0 mi SSE 21.9 mph 26.5 mph N/A   Clear
5:53 AM 66.2 °F 44.6 °F 46% 29.84 in 10.0 mi SSE 21.9 mph 26.5 mph N/A   Clear
6:14 AM 66.2 °F 44.6 °F 46% 29.84 in 10.0 mi SE 18.4 mph 26.5 mph N/A   Clear
6:33 AM 66.2 °F 44.6 °F 46% 29.84 in 10.0 mi SE 18.4 mph 25.3 mph N/A   Clear
7:13 AM 64.4 °F 46.4 °F 52% 29.82 in 10.0 mi SE 18.4 mph 26.5 mph N/A   Clear
7:34 AM 64.4 °F 46.4 °F 52% 29.81 in 10.0 mi SE 16.1 mph - N/A   Clear
7:53 AM 64.4 °F 46.4 °F 52% 29.81 in 10.0 mi SE 20.7 mph 26.5 mph N/A   Scattered Clouds
8:14 AM 64.4 °F 46.4 °F 52% 29.82 in 10.0 mi SE 19.6 mph 25.3 mph N/A   Mostly Cloudy
8:33 AM 66.2 °F 46.4 °F 49% 29.81 in 10.0 mi SSE 20.7 mph 31.1 mph N/A   Mostly Cloudy
8:54 AM 66.2 °F 46.4 °F 49% 29.79 in 10.0 mi SE 24.2 mph 28.8 mph N/A   Scattered Clouds
9:14 AM 66.2 °F 46.4 °F 49% 29.78 in 10.0 mi SE 21.9 mph 28.8 mph N/A Rain Light Rain
9:33 AM 66.2 °F 48.2 °F 52% 29.80 in 10.0 mi SSE 19.6 mph 29.9 mph N/A   Clear
9:53 AM 66.2 °F 48.2 °F 52% 29.80 in 10.0 mi SSE 20.7 mph 27.6 mph N/A   Scattered Clouds
10:14 AM 69.8 °F 46.4 °F 43% 29.80 in 10.0 mi South 21.9 mph 33.4 mph N/A   Clear
10:34 AM 69.8 °F 46.4 °F 43% 29.80 in 10.0 mi SSE 24.2 mph 32.2 mph N/A   Clear
11:14 AM 73.4 °F 46.4 °F 38% 29.79 in 10.0 mi South 28.8 mph 38.0 mph N/A   Clear
11:34 AM 75.2 °F 46.4 °F 36% 29.78 in 10.0 mi South 31.1 mph 46.0 mph N/A   Clear
12:13 PM 75.2 °F 46.4 °F 36% 29.77 in 10.0 mi South 32.2 mph 41.4 mph N/A   Clear
12:34 PM 77.0 °F 46.4 °F 34% 29.77 in 10.0 mi SSE 33.4 mph 41.4 mph N/A   Clear
12:54 PM 77.0 °F 46.4 °F 34% 29.76 in 10.0 mi South 32.2 mph 42.6 mph N/A   Clear
1:13 PM 78.8 °F 48.2 °F 34% 29.76 in 10.0 mi SSE 32.2 mph 43.7 mph N/A   Clear
1:33 PM 78.8 °F 48.2 °F 34% 29.75 in 10.0 mi South 34.5 mph 46.0 mph N/A   Clear
1:54 PM 80.6 °F 48.2 °F 32% 29.75 in 10.0 mi South 33.4 mph 43.7 mph N/A   Clear
2:34 PM 80.6 °F 50.0 °F 34% 29.74 in 10.0 mi South 31.1 mph 41.4 mph N/A   Scattered Clouds
2:53 PM 80.6 °F 51.8 °F 37% 29.73 in 10.0 mi South 23.0 mph 40.3 mph N/A   Scattered Clouds
3:13 PM 80.6 °F 51.8 °F 37% 29.73 in 10.0 mi South 29.9 mph 43.7 mph N/A   Mostly Cloudy
4:14 PM 80.6 °F 51.8 °F 37% 29.73 in 10.0 mi South 24.2 mph 39.1 mph N/A   Scattered Clouds
4:34 PM 80.6 °F 51.8 °F 37% 29.73 in 10.0 mi South 35.7 mph 39.1 mph N/A   Scattered Clouds
4:54 PM 80.6 °F 51.8 °F 37% 29.73 in 10.0 mi South 31.1 mph 41.4 mph N/A   Scattered Clouds
5:13 PM 78.8 °F 51.8 °F 39% 29.73 in 10.0 mi South 24.2 mph 36.8 mph N/A   Scattered Clouds
5:34 PM 78.8 °F 51.8 °F 39% 29.73 in 10.0 mi South 25.3 mph 39.1 mph N/A   Mostly Cloudy
5:53 PM 78.8 °F 53.6 °F 42% 29.73 in 10.0 mi South 29.9 mph 38.0 mph N/A   Scattered Clouds
6:14 PM 78.8 °F 53.6 °F 42% 29.73 in 10.0 mi South 26.5 mph 33.4 mph N/A   Scattered Clouds
6:33 PM 78.8 °F 53.6 °F 42% 29.73 in 10.0 mi South 26.5 mph 34.5 mph N/A   Scattered Clouds
6:54 PM 78.8 °F 53.6 °F 42% 29.73 in 10.0 mi South 25.3 mph 33.4 mph N/A   Scattered Clouds
7:14 PM 78.8 °F 53.6 °F 42% 29.73 in 10.0 mi South 31.1 mph 39.1 mph N/A   Scattered Clouds
7:34 PM 77.0 °F 55.4 °F 47% 29.74 in 10.0 mi South 24.2 mph 34.5 mph N/A Thunderstorm Clear
7:53 PM 75.2 °F 55.4 °F 50% 29.75 in 10.0 mi South 29.9 mph 35.7 mph N/A   Clear
8:14 PM 75.2 °F 55.4 °F 50% 29.74 in 10.0 mi South 21.9 mph 34.5 mph N/A   Scattered Clouds
8:33 PM 71.6 °F 59.0 °F 64% 29.75 in 10.0 mi South 21.9 mph 34.5 mph 0.01 in Rain Light Rain
8:54 PM 73.4 °F 59.0 °F 61% 29.75 in 10.0 mi South 25.3 mph 34.5 mph 0.01 in   Light Drizzle
8:55 PM 73.4 °F 59.0 °F 61% 29.75 in 10.0 mi South 24.2 mph 34.5 mph 0.01 in   Light Drizzle
9:14 PM 75.2 °F 57.2 °F 53% 29.75 in 10.0 mi South 27.6 mph 39.1 mph N/A Thunderstorm Thunderstorm
9:33 PM 75.2 °F 57.2 °F 53% 29.77 in 10.0 mi South 28.8 mph 38.0 mph N/A Rain , Thunderstorm Light Thunderstorms and Rain
9:54 PM 66.2 °F 62.6 °F 88% 29.82 in 3.0 mi SW 20.7 mph 36.8 mph 0.08 in Rain Heavy Rain
9:55 PM 66.2 °F 62.6 °F 88% 29.82 in 3.0 mi SW 18.4 mph 36.8 mph 0.08 in Rain Heavy Rain
10:13 PM 66.2 °F 62.6 °F 88% 29.82 in 7.0 mi SW 17.3 mph 29.9 mph 0.05 in Rain , Thunderstorm Rain
10:34 PM 64.4 °F 57.2 °F 77% 29.84 in 7.0 mi SW 18.4 mph 27.6 mph 0.08 in Rain , Thunderstorm Light Thunderstorms and Rain
10:53 PM 64.4 °F 57.2 °F 77% 29.84 in 10.0 mi SW 12.7 mph 21.9 mph 0.12 in Rain , Thunderstorm Light Thunderstorms and Rain
10:55 PM 64.4 °F 57.2 °F 77% 29.85 in 10.0 mi SW 16.1 mph - 0.12 in Rain , Thunderstorm Rain
11:13 PM 62.6 °F 55.4 °F 77% 29.86 in 10.0 mi SW 11.5 mph 25.3 mph 0.01 in Rain , Thunderstorm Light Thunderstorms and Rain
11:34 PM 62.6 °F 53.6 °F 72% 29.85 in 10.0 mi SSW 12.7 mph - 0.02 in Rain Light Rain
11:54 PM 60.8 °F 51.8 °F 72% 29.85 in 10.0 mi SSW 10.4 mph - 0.12 in Rain Light Rain
11:55 PM 60.8 °F 51.8 °F 72% 29.85 in 10.0 mi SSW 9.2 mph - 0.12 in Rain Light Rain